Other Public Products
Issued by NWS Grand Forks, ND

Home | Current Version | Previous Version | Graphics & Text | Print | Product List | Glossary On
Versions: 1 2 3 4 5 6 7 8 9 10 11 12 13 14 15 16 17 18 19 20 21 22 23 24 25 26 27 28 29 30 31 32 33 34 35 36 37 38 39 40 41 42 43 44 45 46 47 48 49 50
000
FPUS83 KFGF 291610
OPUFGF
PRAIRIE TO PINES WEATHER ROUNDUP
NATIONAL WEATHER SERVICE EASTERN NORTH DAKOTA/GRAND FORKS ND
1100 AM CDT WED OCT 29 2014

 **SATELLITE DATA USED TO AUGMENT SKY COVER AT AUTOMATED STATIONS**
 *****  WEATHER ACROSS EASTERN NORTH DAKOTA  *****

CITY           SKY/WX    TMP DP  RH WIND       PRES   REMARKS
GRAND FORKS    CLOUDY    37  27  67 SW6       30.12F
GRAND FORKS AF CLOUDY    37  27  68 W6        30.12F
GRAND CITY NWS   N/A     36 N/A N/A W3          N/A
BUXTON         NOT AVBL
DEVILS LAKE    CLOUDY    36  21  55 S7        30.05F
FARGO          CLOUDY    37  27  67 W7        30.15R
WAHPETON ARPT  CLOUDY    36  28  75 W7        30.16F
$$

 *****  WEATHER ACROSS CENTRAL AND WESTERN NORTH DAKOTA  *****

CITY           SKY/WX    TMP DP  RH WIND       PRES   REMARKS
JAMESTOWN      CLOUDY    38  29  70 S7        30.08F
BISMARCK       SUNNY     39  31  72 S12       30.04F
MINOT          CLOUDY    39  29  67 SE10      29.96F
MINOT AFB      CLOUDY    38  33  81 SE15      29.95F
GARRISON         N/A     37  31  78 S10       29.97F
WILLISTON      PTSUNNY   33  27  78 S5        29.91F
DICKINSON      MOSUNNY   40  29  64 SW14      29.92F
HETTINGER      MOSUNNY   38  29  70 S6        29.98F
$$

 *****  OTHER OBSERVATIONS NORTHEAST NORTH DAKOTA  *****

CITY           SKY/WX    TMP DP  RH WIND       PRES   REMARKS
WALHALLA         N/A     36  27  69 SW8       30.09F
LANGDON        CLOUDY    32  27  80 SW9       30.06S WCI  24
CAVALIER       CLOUDY    36  27  69 SW7       30.09F
GRAFTON        CLOUDY    36  27  69 SW8       30.10F
CANDO          CLOUDY    34  27  75 SE8       30.05F
FORT TOTTEN    NOT AVBL
ROLLA          CLOUDY    32  28  86 S9        30.03S WCI  24
RUGBY          FAIR      36  28  75 SE10      30.03S
 ***** THE ABOVE OBSERVATIONS ARE NON NWS ARE NOT QUALITY
        CONTROLLED AND MAY MIS-REPORT RAIN FOR SNOW...
$$

 *****  OTHER OBSERVATIONS SOUTHEAST NORTH DAKOTA *****

CITY           SKY/WX    TMP DP  RH WIND       PRES   REMARKS
COOPERSTOWN    NOT AVBL
VALLEY CITY    CLOUDY    36  28  75 W6        30.12F
OAKES            N/A     37  30  75 S5        30.13F
GWINNER        CLOUDY    37  28  70 SW6       30.15F
SHEYENNE NWR     N/A     36  27  69 W5        29.95
BUFFALO        NOT AVBL
WYNDMERE         N/A     36  27  69 NW7         N/A
 ***** THE ABOVE OBSERVATIONS ARE NON NWS ARE NOT QUALITY
       CONTROLLED AND MAY MIS-REPORT RAIN FOR SNOW...
$$

  *****  WEATHER ACROSS NORTHERN MINNESOTA  *****

CITY           SKY/WX    TMP DP  RH WIND       PRES   REMARKS
FLAG ISLAND    CLOUDY    34  32  93 NW9       30.05S
WARROAD        CLOUDY    36  30  80 W8        30.09R
ROSEAU         CLOUDY    36  30  80 W8        30.09R
HALLOCK          N/A     36  30  80 W5        30.11S
THF RVR FALLS  CLOUDY    34  28  80 W8        30.12S
HALSTAD          N/A     37  27  65 W8          N/A
FOSSTON        CLOUDY    32  30  93 W6        30.13R
BAUDETTE       CLOUDY    35  33  92 MISG      30.07R
WASKISH        CLOUDY    36  34  93 CALM      30.08S
CROOKSTON      CLOUDY    36  30  80 W5        30.14S
$$
  *****  WEATHER ACROSS CENTRAL AND WEST MINNESOTA  *****

CITY           SKY/WX    TMP DP  RH WIND       PRES   REMARKS
BEMIDJI        CLOUDY    33  32  96 W8        30.10R
PARK RAPIDS    CLOUDY    34  32  92 W9        30.11R
WADENA         CLOUDY    34  30  86 W6        30.12S
DETROIT LAKES  CLOUDY    36  30  80 NW8       30.14S
MOORHEAD       CLOUDY    37  30  75 SW5       30.16S
FERGUS FALLS   CLOUDY    36  27  69 W7        30.17S
ELBOW LAKE     CLOUDY    35  29  79 NW6       30.16S
MORRIS MN      NOT AVBL
STAPLES        CLOUDY    34  30  86 NW7       30.13R
WHEATON        CLOUDY    34  27  75 W3        30.19S
$$
  *****  WEATHER ELSEWHERE ACROSS MINNESOTA  *****

CITY           SKY/WX    TMP DP  RH WIND       PRES   REMARKS
DULUTH         PTSUNNY   37  32  82 NW17      30.06R
INTRNTL FALLS  CLOUDY    37  35  92 W6        30.05S
ELY            CLOUDY    37  34  87 W5        30.04S
CLOQUET        CLOUDY    37  34  87 W9G17     30.08S
BRAINERD       CLOUDY    34  31  88 W5        30.12S
HIBBING        CLOUDY    38  33  82 NW6       30.07F
ALEXANDRIA     CLOUDY    35  28  75 NW7       30.15S
SAINT CLOUD    CLOUDY    38  30  73 NW7       30.15S
MINNEAPOLIS    CLOUDY    40  30  67 NW10      30.16R
$$

  *****  WEATHER ACROSS SOUTH DAKOTA  *****

CITY           SKY/WX    TMP DP  RH WIND       PRES   REMARKS
SIOUX FALLS    MOSUNNY   43  33  68 CALM      30.18F
BROOKINGS      NOT AVBL
WATERTOWN      CLOUDY    36  30  79 NW6       30.15S
HURON          SUNNY     41  29  62 VRB5      30.16F
SISSETON         N/A     37  28  70 NW3       30.15F
ABERDEEN       SUNNY     42  30  62 VRB5      30.14F
MITCHELL       SUNNY     40  32  73 E3        30.19S
PIERRE         SUNNY     38  31  76 SE14      30.08F
MOBRIDGE       MOSUNNY   41  34  76 S13       30.04F
RAPID CITY     MOSUNNY   42  28  57 CALM      30.01F
$$

  *****  SOME WEATHER IN NEARBY STATES *****

CITY           SKY/WX    TMP DP  RH WIND       PRES   REMARKS
GLASGOW MT     CLOUDY    36  29  75 CALM      29.89R
GREAT FALLS MT MOSUNNY   51  35  54 SW14G23   30.00R
CHEYENNE WY    SUNNY     56  16  20 W22G32    30.17S
SCOTTSBLUFF NE SUNNY     42  29  59 CALM      30.11F
OMAHA NE       SUNNY     45  33  63 CALM      30.27S
DES MOINES IA  CLOUDY    46  31  55 N13G22    30.22R
DAVENPORT IA   PTSUNNY   46  30  53 NW13      30.15R
CHICAGO IL     CLOUDY    46  31  55 W13       30.06R
EAU CLAIRE WI  CLOUDY    41  31  67 W9        30.11R
LA CROSSE WI   CLOUDY    44  31  60 NW12      30.13R
$$

  *****  SOME NATIONAL WEATHER *****

CITY           SKY/WX    TMP DP  RH WIND       PRES   REMARKS
LA GUARDIA NY  CLOUDY    70  53  54 SW6       29.86F
RALEIGH NC     CLOUDY    71  57  61 SW13      30.01F
ATLANTA GA     LGT RAIN  63  61  93 SW5       30.09S
NEW ORLEANS LA MOSUNNY   79  67  66 NW10      30.11S
OKLAHOMA CITY  SUNNY     63  40  42 SW3       30.26S
ALBUQUERQUE NM SUNNY     54  20  26 N9        30.32R
SALT LAKE CITY MOSUNNY   47  25  42 SE6       30.30S
LOS ANGELES CA MOSUNNY   66  60  78 CALM      30.04R
BOISE ID       MOSUNNY   48  33  56 E3        30.21S
SEATTLE WA     PTCLDY    55  52  89 S9        30.11R
$$

*** WEATHER ACROSS MANITOBA...SASKATCHEWAN AND ONTARIO ***
                ***ONTARIO***

CITY           SKY/WX    TMP DP  RH WIND       PRES   REMARKS
GERALDTON      LGT SNOW  32  30  93 NW9       29.90  FOG     WCI  24
THUNDER BAY    PTSUNNY   41  32  70 NW10G18   30.01R
SIOUX LOOKOUT  SNOWSHWR  34  30  86 NW9       30.02R
TORONTO        PTSUNNY   55  39  54 W21       29.87S
BIG TROUT LK   LGT SNOW  28  25  86 NW7       29.99S WCI  21
PICKLE LAKE    FLURRIES  28  25  86 VRB5      29.99R WCI  23
DRYDEN         CLOUDY    34  32  93 NW5       30.02S
KENORA         CLOUDY    34  32  93 N3        30.05R FOG
$$
                *** MANITOBA***

CITY           SKY/WX    TMP DP  RH WIND       PRES   REMARKS
BRANDON        CLOUDY    32  27  80 SE8       30.03F WCI  25
DAUPHIN        CLOUDY    32  27  80 SW7       30.04R
ISLAND LAKE    PTSUNNY   25  23  93 CALM      30.06S
PILOT MOUND      N/A     32  27  80 S13         N/A  WCI  22
THE PAS        CLOUDY    28  25  86 E3        30.02S
THOMPSON       FLURRIES  25  23  93 W7        30.06  WCI  17
WINNIPEG       CLOUDY    34  30  86 W3        30.09F
LYNN LAKE      CLOUDY    25  25 100 VRB2      30.02S
CHURCHILL      FRZ DRZL  23  21  93 W13       30.07S VSB 1/2 WCI  11
GILLAM         FLURRIES  23  19  86 W6        30.06S WCI  16
$$
                ***SASKATCHEWAN***

CITY           SKY/WX    TMP DP  RH WIND       PRES   REMARKS
ESTEVAN        PTSUNNY   36  30  80 SE7       29.89F
KINDERSLEY     PTSUNNY   27  25  93 N12       29.83R WCI  16
LLOYDMINSTER   CLOUDY    30  28  93 NE10      29.89R WCI  21
PRINCE ALBERT  CLOUDY    32  30  93 E9        29.92S WCI  24
REGINA         MOSUNNY   36  30  80 SE17      29.83S



USA.gov is the U.S. government's official web portal to all federal, state and local government web resources and services.